Regional Weather Roundup
Issued by NWS

Home | Current Version | Previous Version | Text Only | Print | Product List | Glossary On
Versions: 1 2 3 4 5 6 7 8 9 10 11 12 13 14 15 16 17 18 19 20 21 22 23 24 25 26 27 28 29 30 31 32 33 34 35 36 37 38 39 40 41 42 43 44 45 46 47 48 49 50
000
ASUS43 KTOP 210159
RWRKS

WEATHER ROUNDUP FOR KANSAS
NATIONAL WEATHER SERVICE GOODLAND KS
800 PM CST TUE FEB 20 2018

NOTE:  "FAIR" INDICATES FEW OR NO CLOUDS BELOW 12,000 FEET WITH NO
SIGNIFICANT WEATHER AND/OR OBSTRUCTIONS TO VISIBILITY.

KSZ001>006-013>018-027>032-041>047-210300-
NORTHWEST KANSAS

CITY           SKY/WX    TMP DP  RH WIND       PRES   REMARKS
GOODLAND       PTCLDY     7   1  76 NW6       30.22R
HAYS           MOCLDY    17   5  59 N13       30.29R WCI   4
HILL CITY      CLOUDY    16   3  56 N10       30.31R WCI   4
RUSSELL        CLEAR     20   6  55 N10       30.28R WCI   9
$$

KSZ061>065-074>080-084>089-210300-
SOUTHWEST KANSAS

CITY           SKY/WX    TMP DP  RH WIND       PRES   REMARKS
DODGE CITY     CLEAR     19   1  45 N13       30.22R WCI   6
GARDEN CITY    CLEAR     17  -2  43 N12       30.23R WCI   4
GREAT BEND     CLOUDY    19   7  59 N10       30.28R WCI   7
LIBERAL        CLOUDY    24   3  40 N15       30.21R WCI  11
$$

KSZ066>073-081>083-090>101-210300-
SOUTHEAST KANSAS

CITY           SKY/WX    TMP DP  RH WIND       PRES   REMARKS
CHANUTE        CLOUDY    25  21  85 N16G24    30.23R WCI  12
COFFEYVILLE    CLOUDY    27  24  89 N16       30.23R WCI  15
HUTCHINSON     CLOUDY    23  14  68 N8        30.26R
MEDICINE LODGE   N/A     24  13  62 N12       30.25R WCI  13
NEWTON         CLOUDY    21  16  81 N15       30.25R WCI   8
PARSONS        CLOUDY    26  23  88 N13G25    30.23R WCI  15
WICHITA INTL   CLOUDY    24  19  81 N13       30.25R WCI  12
WICHITA JABRA  CLOUDY    21  18  88 N8        30.25R
WICHITA MCCONL PTCLDY    22  17  79 N13       30.24R WCI  10
WINFIELD       CLOUDY    23  20  88 N20G26    30.26R WCI   8
$$

KSZ007>012-019>026-033>040-048>060-102>105-210300-
NORTHEAST KANSAS

CITY           SKY/WX    TMP DP  RH WIND       PRES   REMARKS
CONCORDIA      CLOUDY    18   9  68 N12       30.31R WCI   5
EMPORIA        CLOUDY    21  16  81 N16G23    30.26R WCI   7
LAWRENCE       CLOUDY    22  17  81 NW13G21   30.29R WCI  10
MANHATTAN      PTCLDY    23  12  62 N10G17    30.31R WCI  12
OLATHE IND     CLOUDY    21  17  84 N20G26    30.26R WCI   6
OLATHE EXE     CLOUDY    21  17  84 N15       30.24S WCI   8
SALINA         PTCLDY    23  13  65 N14       30.31R WCI  11
TOPEKA BILLARD CLOUDY    22  17  81 N14       30.30R WCI   9
TOPEKA FORBES  CLOUDY    23  16  74 N14G24    30.28R WCI  11
$$




USA.gov is the U.S. government's official web portal to all federal, state and local government web resources and services.